Wind_Speed
12 13 14 13 14 15 15 14 15 15 16 17 18 19 20 22 23 24 23 24 24 25 27 29 31 33 35 37 37 39 40 41 41 42 43 44 45 46 47 46 46 45 44 42
12 14 14 13 13 15 15 15 16 17 17 19 20 21 23 24 25 24 24 24 25 27 29 31 34 36 38 39 39 40 41 42 42 43 44 45 46 47 47 47 47 46 44 42
11 13 13 13 12 13 14 15 16 16 18 21 23 24 25 25 25 25 25 26 27 29 31 34 36 38 40 40 41 41 42 42 43 45 46 47 48 48 48 47 47 46 44 42
11 12 11 10 12 13 13 14 15 16 19 22 24 25 26 26 25 25 26 27 29 31 34 36 38 40 41 41 42 42 43 43 45 46 47 48 49 49 48 48 47 45 43 42
13 12 9 8 12 13 13 13 15 17 20 22 24 25 25 25 26 27 28 29 31 33 36 38 40 41 42 42 43 43 44 45 46 47 48 49 49 49 48 47 46 45 43 42
16 14 9 11 14 14 14 14 17 19 21 22 24 25 25 26 27 28 29 31 33 35 38 40 41 42 42 43 43 44 45 47 48 49 50 49 49 49 48 47 45 44 43 42
18 16 15 16 17 17 18 19 20 20 22 23 25 26 26 27 28 30 31 33 35 38 40 41 42 43 43 44 44 45 47 49 50 51 51 50 49 49 47 45 44 43 42 41
21 20 21 21 21 21 22 22 23 24 25 25 26 27 28 29 30 32 34 36 38 40 41 43 43 43 45 46 47 49 50 52 52 52 51 50 49 48 46 44 43 42 41 40
25 24 24 25 26 25 26 26 27 28 28 28 28 29 30 31 33 34 36 38 40 41 42 43 43 45 46 48 50 52 53 54 54 54 52 50 48 46 44 43 41 40 40 38
29 27 28 28 29 29 29 30 30 31 31 32 32 32 32 34 35 36 38 39 40 41 42 43 44 46 48 50 52 54 55 55 56 54 52 49 46 44 42 41 40 39 38 36
31 30 31 30 31 31 31 32 32 33 34 34 34 34 35 36 37 38 39 40 40 42 43 45 46 48 50 52 54 56 56 57 56 54 50 47 45 43 41 40 39 38 36 35
33 33 34 33 32 33 33 33 34 36 36 36 37 37 38 38 38 39 40 40 41 43 45 47 48 50 52 55 57 57 58 57 55 51 48 45 43 42 41 40 38 37 35 34
34 35 35 35 34 35 35 35 36 37 38 39 39 40 40 40 40 40 41 42 42 44 47 49 51 53 56 58 59 58 57 55 52 49 46 43 41 40 39 38 37 36 34 33
34 35 36 36 36 36 37 37 39 40 41 42 42 42 43 43 43 43 43 43 44 47 50 52 54 56 58 59 58 58 56 53 50 47 43 41 40 39 37 35 34 34 32 31
35 36 38 39 39 39 40 40 41 43 44 44 45 45 45 46 47 46 45 45 48 50 53 54 56 59 60 60 58 56 53 50 48 44 41 39 38 37 35 34 33 32 30 30
37 39 40 41 42 43 43 44 44 45 46 46 48 48 49 49 49 49 49 50 51 53 55 57 59 61 62 60 56 53 51 48 45 41 39 38 36 34 33 32 32 31 29 29
39 40 41 42 43 44 44 44 45 46 47 48 49 50 49 50 51 52 54 55 56 57 58 60 62 62 61 57 54 51 48 46 42 39 37 35 34 33 32 31 30 30 28 28
39 40 41 42 43 43 44 45 46 47 49 50 51 52 53 55 57 58 59 60 60 61 62 62 62 61 57 54 51 48 45 43 39 36 35 33 32 31 30 29 28 28 27 27
42 43 44 45 45 46 47 48 50 51 53 54 55 56 57 59 61 63 64 64 64 64 62 61 60 58 55 52 49 46 43 40 37 34 33 32 30 29 28 27 27 26 25 25
46 47 47 48 49 50 51 52 54 56 58 59 60 61 62 64 66 66 66 65 65 63 61 59 57 54 51 49 46 43 40 37 35 32 30 29 28 27 26 25 25 24 24 24
50 51 51 52 54 55 57 59 60 62 63 64 65 66 67 67 67 66 65 63 61 59 57 55 52 50 48 45 43 40 37 34 32 30 28 27 26 25 24 24 23 23 23 23
54 55 57 58 59 60 62 63 64 65 66 67 67 67 67 66 65 63 62 60 57 55 53 51 48 46 44 42 40 37 34 32 30 27 26 25 24 23 23 22 21 21 21 21
59 60 61 62 63 64 64 64 65 65 65 65 65 64 63 62 61 59 56 54 53 51 49 47 45 43 41 39 37 34 32 30 28 26 24 23 22 21 21 19 19 18 18 19
62 63 63 64 64 64 64 64 64 64 63 63 62 61 60 59 57 55 54 51 49 47 45 43 41 39 37 36 34 33 31 29 27 24 23 22 20 19 18 17 16 16 16 16
62 63 63 63 63 63 62 62 62 62 62 61 60 59 58 57 55 52 50 48 45 43 41 39 37 35 34 33 32 31 29 27 24 22 21 19 18 17 16 15 14 14 13 13
62 62 62 62 62 62 62 62 62 61 61 60 58 57 55 53 51 48 46 43 41 39 36 34 33 32 31 30 29 28 26 24 21 19 18 17 16 15 14 13 12 11 11 10
60 61 61 61 61 61 60 60 59 58 57 55 53 51 49 46 44 42 40 37 35 33 31 29 28 27 26 26 25 24 22 20 19 17 16 15 14 13 11 11 10 9 8 8
Wind_Direction
287 285 286 284 279 277 282 287 292 301 305 308 309 313 318 323 325 327 328 328 327 327 328 329 330 330 331 330 330 329 329 329 329 328 327 327 326 326 325 324 323 321 318 315
292 294 298 295 286 281 284 289 293 298 301 302 306 312 316 320 321 322 324 325 326 327 328 329 330 330 330 329 328 328 328 328 328 327 326 325 324 324 323 322 322 320 318 315
289 297 302 300 294 293 294 295 296 296 297 300 306 310 313 316 318 320 322 324 325 327 328 328 329 329 328 328 327 327 327 328 328 327 325 324 323 322 322 321 321 320 319 316
291 295 299 301 298 299 300 302 298 297 300 303 307 311 313 315 317 319 321 323 324 325 326 327 327 327 326 325 325 326 326 327 327 326 324 323 322 321 321 320 320 320 319 316
291 293 288 296 300 301 304 308 302 303 304 305 309 311 313 315 317 319 320 321 322 323 324 324 324 325 324 324 324 325 326 326 326 326 324 323 321 320 320 320 321 320 319 317
287 293 288 306 303 304 302 306 302 302 302 305 308 311 314 315 317 317 318 319 320 321 321 322 323 323 324 324 325 325 326 326 325 325 324 322 321 320 320 321 321 321 320 318
284 290 296 305 306 304 305 303 302 301 302 306 309 311 313 314 315 315 315 316 317 319 320 321 323 323 324 324 325 326 326 326 325 325 323 322 321 321 321 321 322 322 322 320
284 290 297 300 301 301 301 302 302 302 303 306 308 309 310 311 311 312 313 314 316 317 319 321 323 324 325 325 324 325 325 325 325 324 323 321 321 322 322 322 323 324 324 323
283 287 293 294 296 298 300 302 302 302 304 305 307 307 307 307 308 310 311 313 315 317 319 321 323 325 326 326 325 325 324 324 325 324 324 323 323 323 323 324 324 325 325 324
282 286 288 289 292 295 297 300 301 302 302 302 303 303 303 305 307 309 310 312 315 317 319 320 322 324 325 325 325 325 324 323 324 325 325 324 324 325 325 325 326 326 326 326
278 282 282 284 288 290 292 296 297 297 297 298 298 300 301 303 305 307 310 312 314 317 319 320 321 323 324 324 324 324 323 323 325 326 326 325 325 326 326 326 326 328 328 327
279 282 283 285 286 288 291 293 293 293 294 295 296 297 298 300 303 305 307 309 312 315 317 318 318 320 321 322 323 323 323 324 325 327 327 327 327 326 327 327 327 329 330 329
281 283 285 286 287 289 290 290 290 291 292 294 295 296 297 299 301 303 304 306 308 311 314 315 316 317 319 321 322 322 323 324 325 326 327 327 326 326 328 328 328 330 330 331
281 283 284 285 285 286 287 289 290 291 293 294 295 295 296 297 298 300 301 303 306 309 310 312 314 315 318 319 320 321 323 324 325 326 326 327 326 327 328 328 329 330 330 331
281 281 282 283 284 285 286 287 289 290 291 292 293 293 295 296 297 299 300 303 304 306 308 310 311 314 316 318 319 320 321 322 323 324 325 325 326 327 328 329 330 331 331 331
278 278 279 281 283 285 286 287 289 290 290 290 291 292 293 294 295 298 300 301 302 304 306 307 309 311 314 316 317 318 319 320 321 322 323 324 325 327 328 329 330 331 331 330
278 279 281 282 283 284 285 287 287 288 288 289 290 290 291 292 294 297 299 300 301 302 304 305 307 309 312 314 314 315 316 317 319 320 322 322 324 325 327 328 329 331 331 330
283 283 284 284 285 285 285 286 287 287 287 288 288 290 291 292 293 295 296 297 299 301 304 305 306 308 310 311 312 313 314 314 316 318 319 320 322 323 325 326 328 330 330 330
285 285 285 285 286 286 286 286 286 287 287 288 288 288 290 291 292 294 296 297 299 301 303 303 304 306 307 308 309 310 311 311 312 314 315 317 319 320 322 324 326 329 329 330
285 285 286 286 286 285 285 285 285 285 286 286 287 288 289 291 292 294 295 297 299 300 300 301 302 303 304 305 306 306 307 307 309 311 312 314 316 317 319 322 324 327 328 329
286 286 286 285 284 284 284 284 284 285 285 286 287 287 289 290 292 293 295 296 297 297 298 299 299 300 300 301 301 302 302 303 305 307 308 310 313 314 316 319 321 324 326 328
287 287 287 286 286 286 286 286 287 287 288 288 289 290 291 292 293 294 295 296 296 296 296 297 297 297 297 297 297 297 297 298 300 302 304 306 308 310 313 316 319 322 325 328
288 288 288 287 287 288 288 288 288 289 289 290 291 291 292 293 294 294 294 294 295 295 295 295 294 294 293 293 292 292 293 294 295 296 299 300 302 306 309 313 316 320 323 328
288 288 289 289 290 290 290 291 291 291 291 292 292 293 293 293 294 294 294 294 294 294 293 293 292 290 289 288 288 287 288 289 290 291 293 294 296 301 305 309 314 318 322 328
289 290 290 291 292 292 292 293 293 294 294 294 294 294 294 294 294 294 294 293 293 292 291 290 289 287 285 284 285 286 285 284 283 284 287 289 293 297 300 304 310 315 320 326
291 292 293 293 294 294 294 295 295 295 295 295 295 295 295 294 294 294 293 292 291 290 289 287 285 282 281 281 281 281 279 277 277 278 280 282 287 291 295 299 304 309 315 324
292 293 294 294 295 296 296 297 297 297 297 297 296 296 295 294 293 292 291 290 288 287 286 284 282 281 279 278 277 275 271 269 270 273 275 276 279 284 287 292 297 302 308 319
Height
5849 5848 5847 5847 5846 5845 5844 5843 5842 5841 5839 5837 5834 5831 5828 5825 5823 5820 5817 5814 5810 5807 5803 5799 5794 5789 5784 5779 5774 5768 5762 5756 5750 5743 5736 5730 5723 5716 5708 5701 5694 5687 5680 5674
5847 5845 5844 5843 5842 5840 5840 5839 5838 5836 5835 5832 5829 5826 5824 5821 5818 5815 5813 5809 5806 5801 5797 5793 5788 5783 5778 5773 5767 5761 5755 5748 5742 5735 5728 5721 5714 5706 5699 5691 5684 5676 5670 5663
5845 5843 5841 5840 5839 5837 5836 5835 5834 5832 5831 5827 5824 5821 5819 5816 5813 5811 5808 5804 5800 5796 5791 5787 5782 5777 5772 5766 5760 5754 5747 5741 5734 5727 5719 5712 5704 5697 5689 5681 5673 5666 5658 5652
5842 5842 5840 5840 5836 5834 5832 5831 5829 5827 5825 5822 5819 5817 5814 5811 5808 5805 5802 5798 5794 5790 5786 5781 5776 5771 5765 5759 5753 5746 5739 5732 5725 5718 5710 5703 5695 5687 5679 5671 5663 5655 5647 5641
5839 5837 5836 5836 5833 5831 5829 5828 5825 5823 5821 5817 5814 5812 5809 5806 5803 5800 5796 5793 5789 5784 5779 5775 5770 5764 5758 5752 5745 5738 5731 5724 5717 5709 5701 5693 5685 5676 5668 5660 5652 5644 5636 5629
5835 5833 5832 5833 5829 5827 5826 5824 5822 5819 5816 5813 5810 5807 5804 5801 5797 5794 5790 5787 5782 5778 5773 5768 5763 5757 5751 5744 5737 5730 5723 5716 5708 5700 5692 5683 5675 5666 5658 5650 5641 5633 5626 5618
5830 5828 5827 5827 5824 5823 5822 5819 5816 5813 5810 5807 5804 5802 5798 5795 5791 5788 5784 5780 5776 5771 5766 5761 5755 5749 5743 5736 5729 5722 5715 5707 5699 5691 5682 5673 5665 5656 5648 5640 5632 5624 5616 5608
5824 5823 5824 5821 5818 5817 5815 5813 5810 5807 5805 5802 5799 5796 5792 5789 5785 5781 5777 5773 5769 5764 5759 5753 5747 5741 5734 5728 5721 5713 5706 5698 5689 5681 5672 5664 5655 5646 5638 5630 5622 5614 5606 5599
5819 5819 5817 5814 5812 5810 5808 5806 5804 5801 5798 5795 5793 5789 5786 5782 5778 5774 5770 5766 5761 5756 5751 5745 5739 5732 5726 5719 5711 5704 5696 5688 5679 5670 5662 5653 5645 5637 5628 5621 5613 5606 5598 5590
5811 5811 5810 5808 5805 5804 5801 5799 5797 5794 5791 5789 5786 5782 5779 5775 5771 5767 5762 5758 5753 5748 5742 5736 5730 5724 5717 5710 5702 5695 5687 5678 5670 5661 5652 5643 5635 5627 5620 5612 5605 5598 5590 5583
5803 5803 5802 5801 5799 5796 5794 5792 5790 5787 5784 5781 5778 5775 5771 5768 5763 5759 5754 5749 5744 5739 5733 5727 5721 5715 5708 5701 5693 5685 5677 5668 5660 5651 5642 5634 5626 5618 5612 5605 5597 5591 5583 5576
5796 5795 5793 5793 5791 5789 5787 5785 5782 5779 5776 5773 5770 5767 5763 5759 5754 5750 5745 5740 5734 5729 5724 5718 5712 5705 5699 5692 5684 5676 5667 5659 5650 5642 5633 5626 5618 5611 5603 5597 5590 5583 5577 5570
5788 5786 5785 5783 5782 5780 5778 5775 5772 5769 5767 5764 5761 5757 5753 5749 5745 5740 5735 5730 5724 5719 5714 5708 5702 5696 5689 5682 5674 5666 5658 5649 5641 5633 5625 5618 5611 5604 5597 5590 5583 5577 5570 5564
5780 5777 5775 5773 5772 5770 5767 5765 5762 5759 5756 5753 5750 5747 5743 5738 5734 5729 5724 5719 5714 5709 5704 5698 5692 5685 5679 5671 5664 5656 5648 5640 5632 5625 5617 5610 5604 5597 5591 5584 5578 5571 5565 5559
5770 5768 5765 5763 5761 5759 5757 5754 5752 5749 5745 5742 5739 5735 5731 5727 5722 5717 5713 5708 5703 5698 5693 5687 5680 5674 5667 5660 5653 5646 5638 5631 5623 5616 5610 5603 5597 5590 5584 5578 5572 5566 5560 5554
5760 5758 5755 5753 5751 5748 5746 5743 5741 5737 5734 5730 5727 5723 5719 5715 5710 5705 5701 5696 5692 5687 5681 5675 5668 5662 5655 5649 5643 5636 5629 5622 5615 5609 5602 5596 5590 5584 5578 5573 5567 5561 5555 5550
5750 5747 5745 5743 5740 5737 5735 5732 5729 5725 5722 5718 5714 5710 5706 5702 5697 5692 5688 5683 5679 5674 5669 5662 5656 5650 5644 5638 5632 5626 5619 5613 5607 5601 5595 5590 5584 5578 5573 5567 5562 5556 5551 5545
5738 5736 5733 5730 5728 5725 5722 5719 5716 5712 5708 5705 5700 5696 5692 5688 5684 5679 5674 5670 5665 5660 5655 5648 5642 5637 5631 5626 5621 5615 5609 5604 5598 5593 5588 5583 5578 5573 5567 5562 5557 5552 5547 5541
5725 5722 5720 5717 5715 5712 5709 5706 5702 5698 5693 5689 5685 5681 5676 5672 5668 5663 5659 5655 5650 5646 5641 5634 5628 5624 5619 5614 5609 5604 5599 5594 5590 5585 5581 5576 5572 5567 5562 5557 5553 5548 5543 5538
5711 5709 5706 5703 5700 5697 5693 5690 5686 5682 5677 5673 5669 5665 5661 5656 5652 5647 5643 5639 5634 5629 5625 5620 5615 5610 5606 5602 5598 5593 5589 5585 5581 5577 5573 5569 5565 5561 5557 5553 5548 5544 5539 5534
5697 5694 5691 5688 5684 5680 5676 5672 5668 5664 5660 5656 5652 5648 5644 5640 5635 5631 5626 5623 5619 5613 5609 5605 5601 5597 5593 5589 5586 5582 5579 5576 5572 5569 5566 5563 5559 5555 5552 5548 5544 5540 5536 5531
5681 5678 5674 5670 5667 5663 5659 5654 5650 5646 5642 5638 5633 5629 5625 5621 5617 5613 5609 5605 5602 5597 5593 5590 5586 5583 5580 5577 5574 5571 5569 5566 5564 5561 5559 5556 5553 5550 5547 5543 5539 5536 5532 5528
5664 5660 5656 5652 5648 5644 5640 5636 5632 5627 5623 5619 5615 5610 5607 5603 5599 5595 5593 5589 5585 5581 5578 5575 5572 5569 5566 5564 5562 5560 5559 5557 5555 5554 5552 5549 5547 5544 5541 5538 5535 5532 5529 5525
5645 5641 5637 5633 5629 5625 5621 5616 5612 5608 5604 5600 5595 5591 5588 5585 5581 5577 5574 5571 5568 5566 5563 5560 5558 5555 5553 5552 5550 5549 5548 5547 5547 5546 5544 5542 5540 5539 5536 5534 5531 5529 5526 5523
5626 5622 5618 5613 5609 5605 5601 5597 5592 5588 5584 5580 5576 5572 5568 5565 5563 5560 5557 5555 5552 5550 5548 5546 5544 5542 5541 5540 5539 5539 5538 5538 5538 5538 5537 5536 5534 5533 5532 5530 5528 5526 5524 5521
5608 5603 5599 5594 5590 5585 5581 5577 5573 5569 5565 5561 5557 5553 5550 5547 5544 5542 5540 5538 5536 5535 5533 5532 5531 5530 5529 5529 5528 5528 5529 5529 5530 5530 5530 5529 5529 5528 5527 5526 5524 5523 5521 5519
5590 5585 5581 5577 5572 5567 5563 5558 5554 5550 5545 5542 5539 5536 5532 5530 5528 5526 5525 5523 5522 5521 5521 5520 5519 5519 5519 5519 5519 5519 5520 5521 5522 5523 5523 5523 5523 5523 5523 5522 5521 5520 5519 5517